Weather History for OAMS - November, 2013

Change the Weather History Date:

Sunday, November 24, 2013

  Actual Average Record
Temperature  
Mean Temperature 47 °F -  
Max Temperature 57 °F 53 °F - ()
Min Temperature 37 °F 33 °F - ()
Degree Days  
Heating Degree Days 18    
Moisture  
Dew Point 30 °F    
Average Humidity 54    
Maximum Humidity 81    
Minimum Humidity 33    
Precipitation  
Precipitation 0.00 in 0.03 in - ()
Sea Level Pressure  
Sea Level Pressure 30.16 in    
Wind  
Wind Speed 4 mph ()    
Max Wind Speed 15 mph    
Max Gust Speed -    
Visibility 5.4 miles    
Events      
T = Trace of Precipitation, MM = Missing Value Source: Averaged Metar Reports

Daily Weather History Graph

Daily Weather History Graph

Search for Another Location

Airport or City:

Trip Planner

Search our weather history database for the weather conditions in past years. The results will help you decide how hot, cold, wet, or windy it might be!

Date:

Astronomy

Nov. 24, 2013 Rise Set
Actual Time 6:48 AM AFT 4:47 PM AFT
Civil Twilight 6:20 AM AFT 5:15 PM AFT
Nautical Twilight 5:48 AM AFT 5:47 PM AFT
Astronomical Twilight 5:17 AM AFT 6:18 PM AFT
Moon 10:43 PM AFT (11/24) 11:26 AM AFT (11/24)
Length of Visible Light 10h 55m
Length of Day
9h 59m
Waning Gibbous, 64% of the Moon is Illuminated
Nov 24
Waning Gibbous
Nov 26
Last Quarter
Dec 3
New
Dec 9
First Quarter
Dec 17
Full

Hourly Weather History & Observations

Time (AFT) Temp. Windchill Dew Point Humidity Pressure Visibility Wind Dir Wind Speed Gust Speed Precip Events Conditions
12:20 AM 42.8 °F - 30.2 °F 61% 30.12 in 5.0 mi Variable 1.2 mph - N/A   Mostly Cloudy
1:20 AM 42.8 °F 40.1 °F 30.2 °F 61% 30.12 in 5.0 mi SSW 4.6 mph - N/A   Mostly Cloudy
2:20 AM 41.0 °F 38.0 °F 30.2 °F 65% 30.12 in 5.0 mi SSW 4.6 mph - N/A   Mostly Cloudy
3:20 AM 41.0 °F 37.1 °F 30.2 °F 65% 30.15 in 5.0 mi SW 5.8 mph - N/A   Mostly Cloudy
4:20 AM 41.0 °F 38.0 °F 30.2 °F 65% 30.15 in 5.0 mi WSW 4.6 mph - N/A   Mostly Cloudy
5:20 AM 37.4 °F - 30.2 °F 75% 30.18 in 5.0 mi NE 1.2 mph - N/A   Mostly Cloudy
6:20 AM 39.2 °F - 33.8 °F 81% 30.21 in 3.7 mi Variable 1.2 mph - N/A   Mostly Cloudy
7:20 AM 41.0 °F 38.0 °F 33.8 °F 76% 30.21 in 5.0 mi SE 4.6 mph - N/A   Mostly Cloudy
8:20 AM 42.8 °F - 33.8 °F 70% 30.21 in 5.0 mi ENE 1.2 mph - N/A   Mostly Cloudy
9:20 AM 44.6 °F 39.7 °F 33.8 °F 66% 30.21 in 5.0 mi East 9.2 mph - N/A   Mostly Cloudy
10:20 AM 46.4 °F 42.9 °F 32.0 °F 57% 30.24 in 5.0 mi ENE 6.9 mph - N/A   Mostly Cloudy
11:20 AM 50.0 °F - 30.2 °F 47% 30.21 in 6.2 mi NE 9.2 mph - N/A   Mostly Cloudy
12:20 PM 51.8 °F - 30.2 °F 44% 30.18 in 6.2 mi East 5.8 mph - N/A   Scattered Clouds
1:20 PM 55.4 °F - 28.4 °F 36% 30.15 in 6.2 mi ENE 13.8 mph - N/A   Scattered Clouds
2:20 PM 55.4 °F - 28.4 °F 36% 30.15 in 6.2 mi ENE 15.0 mph - N/A   Mostly Cloudy
3:20 PM 57.2 °F - 28.4 °F 33% 30.15 in 6.2 mi ENE 12.7 mph - N/A   Mostly Cloudy
4:20 PM 55.4 °F - 28.4 °F 36% 30.12 in 6.2 mi NE 11.5 mph - N/A   Scattered Clouds
5:20 PM 51.8 °F - 28.4 °F 41% 30.15 in 5.6 mi NE 5.8 mph - N/A   Scattered Clouds
6:20 PM 50.0 °F - 28.4 °F 43% 30.15 in 5.6 mi Calm Calm - N/A   Mostly Cloudy
7:20 PM 50.0 °F - 30.2 °F 47% 30.15 in 5.6 mi ENE 2.3 mph - N/A   Mostly Cloudy
8:20 PM 48.2 °F - 28.4 °F 46% 30.15 in 5.6 mi NNE 3.5 mph - N/A   Mostly Cloudy
9:20 PM 48.2 °F - 30.2 °F 50% 30.15 in 5.6 mi West 1.2 mph - N/A   Mostly Cloudy
10:20 PM 50.0 °F - 30.2 °F 47% 30.15 in 5.6 mi Variable 1.2 mph - N/A   Mostly Cloudy
11:20 PM 48.2 °F - 32.0 °F 54% 30.15 in 5.6 mi West 3.5 mph - N/A   Mostly Cloudy